SBYC BurgeeSandy Bay Yacht Club
Weather Center


NOAA NWS Hourly Roundups by Site

NOAA NWS Hourly Roundups by Site

Regional Weather Roundup for Boston, MA

To Select Another Site Choose from List
Select Site:  

000
ASUS41 KBOX 140010
RWRBOX

REGIONAL WEATHER ROUNDUP
NATIONAL WEATHER SERVICE BOSTON/NORTON MA
700 PM EST WED NOV 13 2019

NOTE:  "FAIR" INDICATES FEW OR NO CLOUDS BELOW 12,000 FEET WITH NO
SIGNIFICANT WEATHER AND/OR OBSTRUCTIONS TO VISIBILITY.

MAZALL-140100-
EASTERN MASSACHUSETTS

CITY           SKY/WX    TMP DP  RH WIND       PRES   REMARKS
BOSTON         FAIR      28   4  35 NW14G21   30.39R WCI  17
6HR MIN TEMP:  28; 6HR MAX TEMP:  33;

BEVERLY        FAIR      24   6  46 NW12      30.36R WCI  13
LAWRENCE       FAIR      23   6  48 NW5       30.39R WCI  17
BEDFORD        FAIR      22   4  46 NW3       30.37R
BLUE HILL        N/A     22   4  46 NW8G20    30.33R WCI  12
NORWOOD        FAIR      27   3  35 NW6       30.39R WCI  20
MARSHFIELD     FAIR      28   5  37 NW10G18   30.38R WCI  19
PLYMOUTH       FAIR      23   7  50 CALM      30.37R
TAUNTON        FAIR      27   3  35 NW6       30.38R WCI  20
NEW BEDFORD    FAIR      24   7  48 W3        30.37R
$$

MAZALL-140100-
CAPE COD AND THE ISLANDS

CITY           SKY/WX    TMP DP  RH WIND       PRES   REMARKS
FALMOUTH       CLEAR     23   3  42 NW7       30.35R WCI  15
HYANNIS        FAIR      28   8  43 W6        30.34R WCI  22
CHATHAM        FAIR      30  14  51 VRB7      30.35R WCI  23
PROVINCETOWN   FAIR      28  16  60 NW15G24   30.37R WCI  16
NANTUCKET      FAIR      30  11  45 NW14      30.35R WCI  19
MARTHAS VNYRD  FAIR      27   4  37 NW6       30.36R WCI  20
$$

MAZALL-140100-
CENTRAL AND WESTERN MASSACHUSETTS

CITY           SKY/WX    TMP DP  RH WIND       PRES   REMARKS
WORCESTER      FAIR      19   3  49 NW6       30.33R WCI  11
6HR MIN TEMP:  18; 6HR MAX TEMP:  26;

FITCHBURG      FAIR      20   4  50 NW6       30.38R WCI  12
ORANGE         FAIR      20   4  50 W3        30.38R
SPRINGFIELD    NOT AVBL
WESTFIELD      FAIR      21   5  50 W7        30.41R WCI  12
NORTH ADAMS    FAIR      16   7  67 SW5       30.38R WCI   9
PITTSFIELD     FAIR      18   5  57 SW3       30.32R
$$

RIZALL-140100-
RHODE ISLAND

CITY           SKY/WX    TMP DP  RH WIND       PRES   REMARKS
PROVIDENCE     FAIR      25   5  42 W6        30.40R WCI  18
6HR MIN TEMP:  25; 6HR MAX TEMP:  32;

NEWPORT        FAIR      28   5  37 NW13G21   30.38R WCI  17
BLOCK ISLAND   FAIR      26   8  46 NW10      30.40R WCI  16
SMITHFIELD     FAIR      21   6  52 W3        30.38R
WESTERLY       FAIR      27   3  35 CALM      30.41R
$$

CTZALL-140100-
CONNECTICUT

CITY           SKY/WX    TMP DP  RH WIND       PRES   REMARKS
BRADLEY INTL   FAIR      23   6  48 NW5       30.41R WCI  17
6HR MIN TEMP:  21; 6HR MAX TEMP:  32;

HARTFORD       FAIR      25   5  42 NW9       30.43R WCI  15
BRIDGEPORT     FAIR      28   4  35 N5        30.42R WCI  23
DANBURY        FAIR      23   6  48 N3        30.40R
GROTON         FAIR      27   4  37 NW10      30.42R WCI  17
NEW HAVEN      FAIR      30   5  34 N8        30.42R WCI  22
CHESTER        FAIR      23   3  42 NW8       30.39R WCI  14
MERIDEN        FAIR      24   4  42 N5        30.43R WCI  18
WILLIMANTIC    FAIR      24   5  44 NW8       30.42R WCI  15
OXFORD         FAIR      21   7  54 NW5       30.39R WCI  15
$$

MEZ002-015-021-024-NHZ003-005-008-011-012-014-VTZ005-008-140100-
NORTHERN NEW ENGLAND

CITY           SKY/WX    TMP DP  RH WIND       PRES   REMARKS
PORTLAND ME    FAIR      20   8  60 N6        30.36R WCI  12
6HR MIN TEMP:  19; 6HR MAX TEMP:  27;

BANGOR ME      FAIR      18   8  65 W6        30.28R WCI  10
CONCORD NH     FAIR      19   7  59 NW10      30.36R WCI   7
MANCHESTER NH  FAIR      23   4  44 NW12      30.35R WCI  12
NASHUA NH      FAIR      22   6  50 NW6       30.39R WCI  14
PORTSMOUTH NH  NOT AVBL
JAFFREY NH     FAIR      19   4  51 CALM      30.32R
KEENE NH       FAIR      16   5  62 CALM      30.38R
BURLINGTON VT  FAIR      15   5  64 E5        30.40R WCI   8
MT. WASHINGTON MOCLDY    -4 -17  54 N35G40      N/A  WCI -33
$$

NYZ052-076-140100-
EASTERN NEW YORK

CITY           SKY/WX    TMP DP  RH WIND       PRES   REMARKS
ALBANY         MOCLDY    22   7  52 NW6       30.41R WCI  14
6HR MIN TEMP:  21; 6HR MAX TEMP:  26;

NEW YORK CITY  FAIR      32   8  36 N9        30.42R WCI  24
6HR MIN TEMP:  32; 6HR MAX TEMP:  35;

$$

ANZALL-140100-
MARINE OBSERVATIONS

STATION/POSITION TIME  TEMP    WIND        PRES    VSBY  WAVE
                       AIR SEA DIR/SP/G                  HT/PER
                 (UTC) (F)     (DEG/KT/KT) (MB)    (MI)  (FT/S)
BOSTON BUOY      2350   30 52  320/ 19/ 25 1027.6R         3/ 4
BUZZARDS BAY     2300   30     340/ 17/ 19 1028.2R
NANTUCKET SOUND  2340      51                N/A           2/ 3
MASS BAY-STELLWA 2304   29 51  320/ 21/ 25 1026.8R  1 7/8  3/ 3
ISLE OF SHOALS   2300   25     310/ 18/ 23 1026.8R
S OF BLOCK IS    2330      58                N/A           4/ 6
$$

......................KEY.........................
  SKY/WX - SKY CONDITION/PRESENT WEATHER
  TMP    - TEMPERATURE IN FAHRENHEIT
  DWPT   - DEWPOINT IN FAHRENHEIT
  RH     - RELATIVE HUMIDITY IN PERCENT
  WIND   - DIRECTION AND SPEED IN MPH
  PRES   - MEAN SEA LEVEL PRESSURE IN INCHES OF HG
  WCI    - WIND CHILL INDEX
  VSB    - VISIBILITY IN MILES
  HX     - HEAT INDEX
  TC     - TEMPERATURE IN CELSIUS
  VRB    - VARIABLE WIND DIRECTION
  N/A    - NOT AVAILABLE


 

View Past Reports for Boston, MA.

Products Courtesy of NOAA-NWS
NWS Information Parsing Script by Ken True at Saratoga Weather - Script by SE Lincoln Weather.

 



home

Copyright © Sandy Bay Yacht Club. All rights reserved.